INMARSAT 5-F4

Last updated on Thu Sep 10 2026 00:02:59 GMT+0000 (Coordinated Universal Time)

1 42698U 17025A 26252.59675502 .00000000 00000+0 00000+0 0 9998 2 42698 0.0278 143.4158 0000372 68.2476 48.3135 1.00270932 34127
UTC large
Height (km)
Speed (km/s)
/
Latitude / Longitude
Inclination (degrees)
Orbital Period (minutes)
Azimuth
Elevation
Range (km)
Doppler Factor

Next 0 passes for location: London (51.5072 / 0.1276)

No passes found over London.
INMARSAT 5-F4